Wind_Speed
15 11 10 10 8 6 5 4 4 5 7 8 8 9 11 12 13 12 11 13 16 18 19 20 18 18 19 20 22 23 23 24 25 25 26 29 35 41 44 45 44 43 44 46 47 48 49 49 49
10 5 5 5 4 3 4 5 6 7 8 11 13 13 11 8 8 10 12 13 13 10 10 12 14 16 16 16 16 17 18 17 18 18 17 18 18 21 29 39 46 47 48 47 47 47 48 51 51
10 8 5 3 3 4 5 6 7 9 11 13 14 10 6 7 10 11 9 7 12 17 19 21 23 25 24 22 20 18 17 16 16 17 17 17 17 17 17 18 23 34 46 49 49 49 48 48 51
10 6 3 0 3 5 7 8 9 10 12 13 5 6 8 9 9 6 12 16 18 20 22 24 24 25 26 28 30 30 26 20 17 16 17 16 16 16 16 17 17 16 17 26 40 50 51 51 51
8 5 5 6 6 9 10 10 10 10 7 2 4 7 7 5 10 17 18 18 19 21 22 22 22 23 24 24 25 27 30 32 29 22 17 17 17 16 16 15 14 15 15 15 15 20 28 39 49
8 8 7 7 7 9 9 7 4 2 1 4 5 4 9 16 19 20 19 20 20 19 20 20 20 20 22 23 25 26 27 27 26 27 28 29 27 21 16 15 16 16 15 15 15 16 16 16 20
10 10 8 5 3 2 4 7 6 3 3 4 8 15 20 21 20 20 19 19 19 20 19 18 18 19 20 20 21 23 24 25 26 26 27 28 28 24 25 25 24 22 20 17 14 13 15 16 16
13 10 8 10 10 11 10 8 5 5 6 11 16 19 21 22 21 21 20 19 20 19 18 18 18 19 20 22 23 24 24 24 24 24 24 25 26 24 22 21 21 20 18 18 17 16 16 17 17
15 13 12 12 12 12 11 9 7 8 11 18 20 21 21 21 19 19 18 18 18 16 16 18 18 19 19 21 22 23 24 24 24 24 23 22 23 23 22 22 22 22 22 21 19 18 18 18 18
16 14 13 12 13 13 10 8 9 11 16 19 20 21 19 18 16 15 15 15 15 15 16 17 18 19 20 20 20 20 21 23 23 24 25 23 21 19 18 19 19 19 19 19 19 19 18 18 18
18 14 13 12 13 12 10 10 11 14 16 17 17 16 15 14 12 12 13 14 14 16 18 20 21 21 21 20 21 20 21 21 23 23 24 23 23 22 20 19 18 17 17 17 16 17 16 15 14
22 15 12 12 12 13 13 12 13 14 15 15 14 11 10 9 9 10 11 13 15 17 19 21 22 22 21 21 21 22 22 22 22 22 23 23 23 23 23 21 20 20 19 17 17 16 16 16 17
20 22 12 11 12 13 13 12 13 13 13 12 10 8 6 5 5 7 9 11 14 17 19 21 22 22 22 23 22 22 22 22 23 23 22 22 22 22 23 23 22 20 18 17 16 17 17 16 16
16 20 20 13 13 11 11 10 10 10 9 8 6 5 4 4 5 4 5 9 12 15 18 19 21 22 22 22 22 23 22 22 22 22 24 24 23 23 22 22 22 21 19 17 17 19 18 17 20
11 15 19 19 13 11 9 7 6 6 6 5 3 3 3 5 7 6 7 7 10 12 15 17 18 20 21 22 22 23 22 22 23 24 24 25 25 24 23 23 23 21 19 18 20 20 20 21 22
7 9 12 14 17 16 8 5 4 4 4 2 1 1 3 4 6 7 7 8 10 13 15 16 17 19 21 21 21 21 22 22 23 23 23 24 25 25 25 24 24 23 22 21 23 23 22 23 25
5 5 7 9 13 16 18 7 5 4 3 2 2 3 4 5 5 6 8 9 12 14 16 17 18 19 21 21 21 21 21 21 21 22 22 22 25 27 26 25 25 24 22 22 24 24 25 25 28
5 6 6 6 9 12 14 15 7 6 6 6 5 4 5 6 7 8 9 12 14 17 18 18 19 20 20 20 20 20 20 21 22 21 21 23 24 26 27 26 25 25 24 24 24 24 24 25 27
7 7 7 7 6 7 10 10 10 10 9 9 9 8 9 9 10 12 13 15 17 19 20 19 20 20 21 20 18 19 20 20 20 21 21 23 24 26 26 26 26 25 24 25 25 25 26 27 27
8 9 9 9 9 8 8 9 10 9 8 9 9 8 10 12 13 14 16 18 19 20 20 20 20 20 20 19 18 18 18 18 18 18 19 21 23 25 26 26 26 25 24 24 25 26 26 27 28
9 10 11 11 12 12 9 11 11 12 12 10 8 8 9 9 10 12 14 15 16 17 17 18 18 18 19 19 18 18 17 16 16 17 17 18 21 23 25 26 26 26 25 24 25 26 27 28 29
8 10 11 12 13 14 15 11 15 14 14 15 15 13 11 11 11 11 11 11 12 13 14 16 18 19 18 20 20 19 19 18 16 16 16 17 19 22 23 25 26 26 26 26 27 28 29 30 31
10 10 10 11 12 13 15 15 15 17 18 18 19 19 18 17 16 16 16 15 15 15 15 15 16 17 19 20 20 21 21 20 18 17 16 17 18 19 21 23 25 27 27 27 27 28 29 30 32
11 12 12 12 11 11 13 14 14 18 19 21 22 23 22 22 23 22 21 20 20 20 20 21 20 19 18 19 21 22 22 22 20 19 17 17 17 19 21 23 25 27 28 29 29 29 30 31 33
13 12 13 12 14 14 14 13 16 15 17 21 23 25 25 27 27 28 27 27 27 26 25 25 25 25 23 23 22 22 22 23 23 22 20 19 19 19 21 22 24 26 27 30 31 31 32 33 34
15 16 16 16 14 14 18 17 15 17 17 19 21 24 27 29 31 31 30 31 31 32 32 31 30 31 29 28 27 26 25 25 24 24 24 23 22 22 23 24 25 26 28 30 32 34 35 35 36
18 19 21 20 18 16 15 19 20 23 21 21 21 24 26 28 29 29 31 33 34 34 36 36 35 35 35 34 33 31 29 29 28 27 27 26 25 25 24 26 27 28 29 30 31 33 36 38 38
20 21 21 22 25 22 16 17 25 24 27 23 26 28 28 27 25 25 27 28 29 32 34 38 39 38 38 38 37 36 33 32 32 31 31 30 29 27 27 27 28 29 30 31 33 33 35 39 41
21 23 24 25 23 25 22 21 22 24 29 33 29 29 29 27 22 24 26 25 26 26 26 30 35 37 38 38 38 38 37 35 34 35 34 32 32 30 29 29 30 30 31 32 34 35 36 38 41
21 25 29 31 27 27 28 21 26 29 32 35 35 34 30 28 29 28 25 23 24 27 28 28 28 32 36 36 36 37 38 38 37 37 36 34 35 33 32 31 32 31 32 34 35 36 37 37 40
Wind_Direction
236 240 246 256 266 258 238 265 286 301 310 308 298 283 282 286 288 292 289 298 304 305 305 306 309 313 315 317 316 313 310 309 308 304 296 285 276 271 269 268 265 263 260 257 254 254 253 254 254
217 217 229 210 214 225 256 288 297 303 307 300 297 293 294 287 291 301 303 307 315 336 3 13 12 7 359 348 336 331 329 327 325 324 324 323 315 298 279 267 263 261 260 260 259 257 256 256 256
123 129 152 175 233 274 290 297 298 301 302 301 295 298 302 302 309 310 328 30 70 68 61 56 50 46 39 28 16 360 342 332 330 331 335 335 336 338 332 313 287 270 261 258 258 259 258 257 257
95 96 100 44 295 293 287 288 289 302 303 298 294 308 315 319 331 32 83 86 79 72 67 64 56 51 48 45 43 38 28 8 345 337 338 338 338 338 339 341 340 330 301 276 265 258 256 257 257
61 30 352 327 300 285 282 284 289 301 302 290 316 332 334 8 83 93 89 84 80 72 68 64 59 52 48 45 41 41 42 41 38 25 2 345 337 335 337 341 343 341 337 333 315 287 270 262 257
32 4 339 314 293 282 283 287 316 77 16 352 359 25 77 99 96 89 83 77 73 71 68 62 56 50 46 42 42 41 39 36 35 35 37 36 33 23 4 349 341 339 335 334 332 325 318 304 282
14 3 352 351 348 12 71 82 78 63 34 36 77 100 101 99 98 90 82 76 73 68 63 58 53 48 47 41 37 37 36 32 27 24 25 27 27 28 32 35 33 33 31 23 16 353 330 320 313
20 33 55 69 74 73 72 71 63 57 63 91 109 104 105 101 95 85 81 76 69 61 56 49 42 41 38 37 35 32 30 30 26 22 18 16 20 20 18 20 18 20 21 17 12 13 15 14 13
42 56 72 70 64 62 59 49 44 66 94 111 109 104 101 96 91 83 78 72 66 59 53 49 42 35 32 29 30 27 23 22 20 20 17 16 16 14 12 11 8 4 7 7 10 8 7 6 5
47 61 66 61 58 58 54 50 65 92 105 115 109 104 102 98 89 81 72 65 61 54 44 40 38 34 29 25 24 24 21 18 15 15 17 14 12 7 5 2 358 357 358 357 360 359 357 357 357
43 60 66 64 64 67 66 72 80 98 108 113 113 110 105 97 87 76 64 59 52 45 41 36 34 29 26 24 23 21 21 20 18 15 11 9 9 6 8 4 359 356 354 350 356 359 357 356 1
41 45 63 63 68 72 74 84 96 106 112 113 115 112 106 100 89 75 61 54 47 42 38 32 28 25 23 22 22 19 18 19 18 16 13 8 3 2 0 357 355 355 355 349 350 351 349 353 357
38 40 42 50 61 65 67 80 93 109 111 115 120 121 114 96 75 70 54 40 37 35 33 28 23 21 19 18 19 18 17 18 17 13 9 9 5 0 360 355 357 354 351 351 349 346 346 351 348
36 38 41 45 47 58 63 71 93 100 109 118 117 114 84 50 32 36 38 31 31 28 27 23 16 13 13 13 13 14 13 14 13 10 7 5 1 2 2 359 358 354 351 350 346 345 346 347 346
32 35 41 44 41 43 52 55 71 90 104 112 112 79 40 23 23 28 23 22 19 16 14 14 11 6 5 5 7 8 8 8 8 7 4 2 1 1 360 0 358 355 356 351 347 344 345 345 346
22 28 33 39 42 37 28 34 41 68 89 116 121 2 13 23 30 24 17 13 1 357 358 358 360 360 357 357 360 0 1 1 2 2 3 2 2 1 3 0 357 357 356 351 345 344 346 344 340
11 5 13 23 26 27 26 11 12 2 7 10 326 325 344 3 2 5 2 359 354 348 346 342 343 346 348 350 351 353 354 355 357 359 1 3 5 3 1 360 357 356 354 349 346 342 343 342 342
342 350 344 351 9 12 16 24 13 354 340 324 318 321 328 327 335 338 338 338 339 336 335 333 334 336 340 343 344 346 349 350 353 356 359 1 3 3 2 360 357 354 351 347 343 340 339 339 338
317 329 328 329 332 343 349 2 20 14 355 334 326 311 308 315 321 323 322 324 326 326 324 323 326 328 333 335 336 341 346 348 352 355 358 358 360 1 2 1 357 355 350 344 340 339 337 336 336
290 302 313 319 325 322 315 317 331 341 354 358 345 326 315 313 316 316 319 322 322 324 323 322 324 326 329 330 331 337 341 344 349 353 357 357 357 358 0 1 359 354 349 345 339 336 335 334 331
294 291 296 304 313 313 310 300 300 305 313 322 328 335 333 326 322 322 322 324 328 329 328 327 326 328 329 328 328 330 332 336 342 349 352 355 356 357 359 1 359 356 353 345 339 336 335 333 331
329 319 310 304 301 301 300 299 298 298 296 295 301 307 308 310 318 318 315 315 319 321 323 325 327 327 330 329 327 325 324 327 333 340 344 350 355 356 357 357 357 357 355 351 343 338 335 332 331
1 353 341 327 313 305 296 298 290 292 292 293 293 291 291 295 296 295 293 296 300 303 307 311 316 323 325 326 326 324 322 322 325 329 333 343 348 352 355 356 358 357 355 354 348 342 337 332 330
11 4 1 351 342 332 318 310 294 286 289 288 289 289 290 287 284 283 284 285 290 295 299 301 302 305 309 314 319 319 318 316 317 316 320 327 335 341 346 349 350 354 355 354 351 346 342 336 331
356 357 358 1 350 345 338 333 311 305 292 287 285 285 287 285 283 282 281 284 286 288 288 291 293 296 299 300 304 307 311 310 310 309 310 315 322 328 333 338 342 347 351 353 353 349 346 342 335
346 344 347 353 352 343 335 335 330 319 308 297 292 289 286 284 283 286 292 290 286 288 286 285 286 288 291 293 296 296 299 301 302 304 304 305 310 315 321 327 333 338 343 347 349 349 347 345 340
345 343 344 344 343 341 336 325 325 321 316 311 304 297 296 297 299 296 291 289 291 291 290 288 287 285 284 286 287 288 291 293 296 299 299 300 302 306 312 318 325 330 335 339 344 346 345 346 344
351 348 346 347 343 341 336 321 324 315 312 313 314 308 310 316 323 311 300 298 296 295 294 292 289 286 285 283 282 284 285 287 290 293 295 298 300 302 305 311 317 323 328 332 337 341 343 343 344
344 341 341 342 338 336 337 336 325 311 307 304 310 310 319 325 316 301 309 316 319 317 312 303 295 290 288 285 284 283 283 283 286 288 290 294 297 299 300 303 309 315 321 326 332 336 339 340 342
337 338 342 340 340 337 336 341 306 306 307 306 309 321 321 317 311 304 308 315 318 320 319 317 314 305 295 292 288 284 282 281 281 283 288 292 293 296 298 300 303 309 315 321 327 332 335 338 339
Height
5889 5891 5891 5891 5894 5892 5891 5893 5892 5892 5892 5891 5891 5891 5890 5888 5887 5888 5884 5882 5880 5878 5876 5874 5872 5870 5867 5864 5861 5859 5857 5855 5852 5851 5850 5850 5848 5847 5847 5847 5849 5849 5850 5850 5852 5852 5853 5853 5856
5888 5890 5890 5890 5892 5891 5891 5892 5892 5892 5891 5890 5889 5888 5888 5886 5885 5883 5882 5879 5877 5874 5872 5870 5868 5866 5864 5862 5860 5857 5855 5853 5851 5849 5847 5844 5843 5840 5838 5837 5838 5839 5840 5841 5841 5843 5845 5845 5846
5889 5889 5891 5890 5891 5891 5891 5891 5891 5891 5890 5889 5888 5886 5885 5884 5882 5880 5878 5876 5875 5873 5872 5869 5867 5865 5864 5861 5858 5855 5852 5850 5848 5846 5844 5842 5839 5837 5834 5832 5830 5829 5830 5830 5831 5833 5835 5837 5838
5890 5891 5892 5891 5890 5890 5890 5890 5889 5889 5888 5887 5886 5885 5883 5881 5879 5878 5877 5876 5875 5874 5871 5869 5868 5866 5864 5861 5858 5855 5852 5849 5846 5844 5842 5839 5837 5835 5833 5830 5827 5824 5822 5821 5822 5823 5825 5826 5828
5891 5891 5890 5889 5889 5888 5888 5888 5888 5887 5887 5886 5885 5883 5881 5880 5879 5879 5878 5877 5876 5874 5873 5871 5870 5867 5865 5862 5859 5856 5853 5850 5846 5843 5841 5838 5835 5833 5831 5828 5826 5824 5821 5818 5816 5814 5815 5817 5818
5891 5890 5889 5887 5886 5886 5886 5886 5886 5886 5886 5885 5883 5882 5881 5881 5881 5880 5880 5879 5877 5875 5874 5873 5871 5868 5865 5863 5860 5857 5853 5850 5847 5844 5842 5838 5835 5831 5828 5826 5824 5822 5820 5818 5815 5813 5811 5810 5811
5890 5888 5886 5885 5885 5884 5885 5885 5886 5886 5885 5884 5883 5883 5884 5883 5883 5883 5882 5881 5880 5878 5876 5875 5872 5869 5866 5863 5861 5858 5855 5851 5848 5845 5842 5839 5836 5832 5829 5827 5825 5821 5818 5816 5813 5811 5809 5808 5807
5888 5887 5886 5885 5885 5886 5886 5886 5886 5886 5885 5884 5885 5885 5886 5886 5885 5885 5884 5883 5880 5879 5878 5876 5874 5871 5868 5865 5861 5859 5855 5852 5849 5846 5843 5839 5836 5834 5831 5827 5825 5823 5820 5817 5814 5811 5809 5807 5805
5889 5888 5887 5887 5887 5887 5887 5887 5886 5886 5886 5886 5887 5887 5888 5887 5887 5887 5886 5884 5882 5881 5879 5877 5875 5873 5870 5867 5862 5860 5856 5853 5850 5846 5843 5840 5836 5834 5830 5826 5824 5821 5818 5816 5814 5811 5809 5807 5805
5891 5889 5889 5889 5889 5889 5888 5888 5888 5888 5888 5889 5889 5889 5889 5889 5889 5888 5887 5885 5884 5883 5882 5879 5876 5873 5871 5868 5865 5861 5858 5854 5851 5847 5843 5840 5836 5834 5830 5826 5823 5821 5817 5815 5812 5809 5807 5805 5803
5893 5892 5891 5891 5891 5891 5890 5890 5889 5889 5890 5891 5891 5891 5890 5890 5889 5889 5888 5887 5886 5884 5882 5879 5876 5874 5871 5868 5865 5862 5859 5855 5851 5847 5843 5840 5836 5833 5828 5825 5822 5820 5816 5814 5811 5808 5805 5802 5801
5895 5894 5893 5893 5892 5892 5892 5891 5890 5891 5892 5892 5892 5892 5892 5891 5891 5890 5890 5888 5887 5884 5882 5879 5877 5874 5871 5868 5865 5862 5858 5854 5852 5848 5843 5839 5835 5831 5828 5824 5821 5817 5814 5812 5809 5806 5803 5800 5798
5897 5896 5894 5894 5894 5893 5893 5893 5893 5893 5893 5893 5893 5893 5892 5892 5891 5890 5890 5888 5886 5884 5881 5879 5876 5874 5871 5868 5865 5861 5859 5855 5851 5847 5844 5839 5834 5831 5826 5823 5818 5815 5813 5810 5807 5804 5801 5799 5796
5899 5898 5896 5895 5895 5895 5894 5894 5893 5894 5893 5894 5894 5893 5893 5892 5891 5890 5889 5887 5886 5884 5881 5878 5876 5874 5870 5868 5864 5861 5857 5854 5850 5847 5841 5837 5835 5829 5825 5822 5817 5814 5811 5808 5804 5801 5798 5796 5793
5900 5900 5899 5897 5896 5896 5896 5895 5895 5894 5894 5894 5894 5893 5893 5892 5891 5890 5888 5887 5885 5883 5880 5878 5875 5873 5870 5867 5863 5859 5856 5853 5849 5844 5840 5836 5832 5827 5824 5819 5816 5813 5808 5805 5801 5798 5795 5792 5789
5901 5901 5900 5899 5898 5897 5897 5896 5895 5894 5894 5894 5893 5893 5892 5891 5890 5889 5888 5886 5884 5882 5880 5877 5874 5871 5868 5865 5862 5858 5855 5851 5847 5843 5839 5835 5830 5826 5821 5817 5813 5809 5805 5801 5798 5795 5791 5788 5784
5902 5901 5900 5900 5898 5898 5897 5896 5896 5895 5894 5894 5893 5892 5892 5891 5890 5888 5887 5885 5884 5881 5878 5876 5873 5870 5867 5864 5860 5856 5853 5850 5846 5841 5837 5833 5828 5823 5819 5815 5811 5807 5803 5799 5795 5791 5787 5783 5779
5901 5901 5900 5900 5900 5899 5898 5897 5896 5895 5894 5893 5892 5891 5890 5890 5889 5887 5886 5884 5882 5880 5877 5874 5871 5869 5865 5862 5858 5855 5851 5848 5844 5840 5836 5831 5827 5822 5818 5813 5808 5804 5800 5796 5792 5788 5784 5780 5776
5901 5900 5900 5900 5899 5899 5898 5897 5896 5895 5893 5892 5891 5891 5889 5888 5887 5886 5884 5882 5879 5877 5874 5872 5869 5866 5862 5859 5856 5853 5850 5846 5842 5838 5834 5830 5826 5821 5816 5811 5807 5802 5798 5793 5788 5784 5780 5775 5771
5899 5899 5898 5898 5897 5897 5897 5896 5895 5894 5892 5891 5889 5888 5887 5886 5885 5883 5882 5879 5877 5874 5871 5868 5865 5862 5859 5856 5853 5850 5847 5844 5840 5837 5833 5828 5824 5820 5815 5810 5805 5801 5796 5790 5785 5781 5777 5772 5768
5896 5896 5896 5896 5895 5894 5895 5894 5893 5892 5891 5889 5888 5887 5885 5883 5882 5880 5878 5876 5874 5872 5869 5866 5863 5859 5856 5853 5850 5847 5844 5841 5838 5834 5830 5825 5821 5817 5812 5807 5803 5798 5793 5788 5782 5777 5772 5767 5762
5895 5895 5894 5893 5893 5892 5891 5893 5890 5889 5888 5886 5885 5884 5883 5881 5880 5878 5875 5873 5871 5869 5866 5864 5861 5858 5853 5850 5847 5844 5841 5838 5834 5831 5827 5822 5818 5814 5810 5806 5801 5796 5790 5784 5779 5773 5768 5762 5756
5894 5893 5892 5891 5889 5889 5888 5888 5887 5885 5883 5882 5881 5880 5879 5878 5876 5873 5871 5869 5867 5865 5863 5861 5858 5855 5852 5848 5844 5841 5838 5834 5831 5827 5824 5819 5815 5811 5807 5803 5798 5793 5787 5781 5775 5770 5764 5758 5752
5893 5892 5890 5888 5887 5887 5884 5884 5883 5881 5880 5878 5876 5874 5874 5872 5870 5868 5867 5865 5863 5862 5860 5857 5854 5851 5848 5845 5841 5838 5834 5831 5828 5824 5820 5816 5812 5808 5804 5799 5795 5790 5784 5778 5772 5766 5759 5753 5746
5893 5892 5891 5889 5886 5884 5881 5880 5878 5877 5874 5873 5871 5869 5868 5865 5863 5862 5861 5861 5859 5857 5855 5852 5850 5847 5844 5841 5837 5834 5831 5827 5824 5820 5817 5813 5808 5804 5799 5795 5790 5786 5780 5775 5768 5762 5755 5748 5740
5890 5889 5888 5886 5885 5883 5879 5877 5876 5872 5870 5868 5866 5864 5860 5858 5856 5856 5857 5854 5852 5850 5848 5846 5843 5840 5838 5835 5832 5829 5826 5822 5818 5815 5812 5808 5804 5800 5795 5791 5786 5781 5776 5770 5764 5758 5751 5743 5735
5888 5887 5886 5884 5883 5881 5879 5876 5871 5868 5865 5863 5861 5858 5855 5853 5852 5850 5847 5846 5845 5843 5840 5837 5835 5833 5830 5827 5825 5822 5819 5816 5813 5810 5806 5802 5799 5795 5791 5786 5782 5777 5771 5766 5760 5754 5746 5739 5731
5886 5884 5882 5880 5877 5877 5876 5873 5868 5865 5860 5858 5856 5852 5850 5849 5847 5845 5841 5839 5835 5833 5831 5828 5825 5823 5820 5817 5815 5813 5811 5808 5806 5803 5799 5796 5793 5789 5786 5781 5776 5772 5767 5761 5755 5749 5742 5734 5726
5883 5880 5878 5878 5876 5872 5870 5868 5865 5860 5856 5852 5852 5849 5847 5845 5841 5837 5835 5833 5830 5826 5823 5819 5815 5813 5810 5808 5806 5804 5802 5800 5797 5795 5793 5789 5785 5782 5779 5775 5771 5766 5761 5756 5751 5744 5737 5730 5722
5879 5878 5876 5873 5874 5870 5868 5868 5858 5854 5850 5846 5844 5844 5842 5840 5836 5833 5830 5826 5823 5820 5816 5812 5808 5805 5801 5798 5796 5794 5792 5790 5788 5785 5784 5782 5778 5775 5772 5768 5764 5760 5756 5751 5745 5739 5733 5726 5718